Theta_e
287 287 287 287 287 286 286 285 285 284 286 285 282 282 285 284 279 277 283 285 283 285 288 289 286 284 284 283 282 282 283 283 284 284 282 281 281 281 282 282 283 283 283 284 284 285 285 285 285 286 286 286 286 286 286 286 286 285 285 284 284 285 285 284 284 285 286 287 287 286 285 285 285 285 286 286 286 286 287 287 288 288 288 287 287 287 287
285 285 286 287 285 285 284 284 285 285 285 284 284 284 285 284 283 284 284 284 284 286 288 288 284 282 281 282 282 282 282 282 283 283 282 281 281 281 282 282 283 284 284 284 285 285 285 285 285 285 286 285 285 285 285 285 285 285 284 284 284 284 284 283 284 285 286 286 286 285 284 284 284 285 285 286 286 286 286 287 287 287 287 287 287 287 286
280 283 285 285 284 283 281 283 283 283 283 283 284 284 284 284 282 283 282 282 281 286 284 284 283 283 282 282 280 280 280 281 282 283 283 282 281 281 282 282 283 283 284 284 285 284 284 285 284 285 285 286 285 284 284 284 284 284 284 283 283 283 283 283 283 284 285 285 285 284 284 283 283 284 284 284 285 285 285 286 286 286 287 286 286 286 286
277 281 281 281 282 281 279 279 280 281 280 279 281 280 283 281 279 281 281 279 280 283 281 283 283 282 281 279 280 280 281 281 281 282 282 282 282 281 282 282 283 283 283 284 284 284 284 285 285 285 285 285 284 283 284 284 284 284 283 282 282 282 282 282 282 283 284 284 283 282 282 282 282 283 284 284 284 284 284 284 285 285 285 286 286 286 286
275 280 281 279 278 277 274 276 279 281 282 282 283 283 284 283 283 279 277 278 280 279 281 279 281 280 280 280 280 280 281 281 281 282 282 283 283 282 282 282 283 283 283 284 284 284 285 285 284 285 285 284 283 283 283 284 284 282 282 281 281 281 281 281 281 282 283 282 281 280 280 280 280 281 283 283 283 284 283 284 284 284 284 285 285 286 286
275 279 277 276 273 268 270 283 285 284 281 282 280 280 282 284 285 280 280 278 277 279 279 277 277 279 279 280 281 282 281 281 282 282 283 283 283 283 283 283 283 284 284 284 285 285 285 285 285 285 285 284 284 284 283 283 282 282 281 281 281 280 280 280 281 281 281 280 279 279 279 278 279 279 282 282 283 283 283 284 284 284 284 284 285 285 285
273 277 275 272 267 269 280 279 282 280 280 280 280 281 283 280 276 276 277 277 277 280 278 278 279 279 280 282 282 282 283 283 282 282 282 283 283 283 283 283 283 284 284 284 284 284 284 284 284 284 284 284 283 283 283 282 282 281 280 280 279 279 279 279 280 280 279 279 278 278 277 277 277 278 280 282 282 282 282 282 282 282 283 283 283 284 285
276 274 272 266 267 275 275 279 280 281 280 280 279 278 281 279 279 280 278 278 279 280 279 280 281 280 281 282 283 283 284 284 283 282 282 283 284 283 283 283 284 284 284 284 284 283 284 284 283 283 283 283 282 281 282 281 280 280 279 279 279 279 278 279 278 279 278 277 277 276 276 275 275 276 278 281 281 281 281 282 282 283 283 283 283 283 284
271 273 271 271 276 274 276 276 278 279 277 278 277 273 276 278 279 280 278 277 278 279 279 280 280 282 282 280 280 284 284 284 284 284 284 285 285 285 285 285 284 285 285 284 284 284 283 283 282 282 282 282 281 280 280 279 279 279 278 278 278 278 278 278 278 278 277 276 275 275 274 274 274 275 276 278 279 280 279 280 280 281 281 281 282 283 283
278 271 270 270 269 266 270 276 277 281 280 280 279 276 274 278 276 279 279 277 278 279 280 280 281 281 277 275 277 282 284 284 284 285 286 286 286 286 285 286 285 285 284 284 283 283 282 282 282 282 281 280 279 278 278 278 278 277 277 277 277 277 277 277 277 277 276 275 274 274 273 273 273 273 274 276 277 278 278 278 278 279 280 281 281 282 282
274 271 268 267 265 267 276 273 278 278 278 280 279 276 271 278 276 278 279 277 279 279 279 279 279 277 273 274 277 281 283 283 284 284 285 286 286 286 286 285 284 284 283 283 282 282 281 281 281 281 280 279 278 277 277 277 277 276 276 276 276 276 276 276 276 276 275 274 273 272 272 272 272 272 272 274 276 277 277 277 277 279 279 280 280 281 282
272 270 268 266 270 269 274 276 279 279 281 282 278 267 269 277 277 279 279 278 279 279 279 280 279 276 272 274 278 282 283 283 283 283 283 284 285 285 285 285 284 283 282 282 281 281 280 280 281 280 279 278 276 275 276 276 275 275 275 275 276 276 275 275 275 274 274 273 272 272 271 271 271 271 272 273 274 275 274 275 275 276 277 278 279 279 280
271 272 269 271 272 277 277 276 278 279 281 277 269 265 274 278 278 279 279 278 278 278 278 279 276 279 280 280 282 283 283 282 282 283 284 284 284 284 284 283 283 281 281 281 280 280 280 280 280 279 277 276 275 275 275 274 273 274 275 275 274 274 274 273 273 273 272 272 271 271 271 270 270 271 271 272 273 272 272 272 273 273 275 276 277 278 279
269 270 268 269 272 278 279 277 278 280 276 268 268 275 279 279 278 280 278 277 278 278 277 279 279 280 282 283 284 283 283 283 283 284 284 284 284 284 283 282 281 281 280 279 279 279 279 279 278 277 276 274 273 273 273 272 273 274 274 273 273 272 272 271 271 271 270 270 270 270 270 269 269 269 270 271 271 270 270 270 270 271 272 274 275 277 278
270 270 267 266 263 275 278 277 276 277 272 274 278 277 276 280 279 279 278 278 279 280 278 279 280 281 281 282 282 282 282 282 282 283 283 283 282 282 281 281 281 279 278 278 278 277 278 277 277 275 274 272 272 271 271 271 272 272 272 271 271 270 270 269 269 269 269 269 269 269 268 268 268 267 268 268 268 268 268 268 269 269 271 273 274 276 277
267 267 265 266 274 277 279 279 275 278 279 281 279 278 277 279 278 279 278 279 280 280 279 279 279 280 280 281 281 281 282 282 282 282 282 282 281 280 281 280 279 278 277 276 276 276 275 275 274 274 272 270 270 269 269 271 271 270 269 269 269 268 267 267 267 267 267 267 267 267 267 267 267 266 266 266 267 267 267 267 268 269 270 272 274 275 275
271 269 273 276 278 278 280 281 281 281 282 281 280 279 279 278 280 281 279 279 280 280 279 279 279 279 280 280 281 280 281 281 281 281 280 280 279 279 278 278 278 276 275 273 272 272 273 272 272 271 271 269 268 267 268 269 268 267 266 266 265 265 264 265 265 265 265 265 265 265 265 265 265 265 265 265 265 266 267 267 267 268 269 271 272 274 275
277 279 279 280 279 280 279 281 282 282 282 282 282 280 279 280 281 281 279 280 280 280 280 278 279 279 280 280 280 281 281 280 280 280 279 279 279 278 277 276 274 272 271 271 270 269 270 270 270 269 268 267 265 265 266 266 265 265 264 263 262 262 262 263 263 263 263 263 263 264 264 265 264 264 264 264 264 265 266 266 267 268 269 270 272 273 274
273 268 278 277 278 280 280 280 282 282 281 281 281 280 280 280 281 280 281 280 280 280 280 279 278 279 280 279 279 280 279 279 278 278 277 277 276 275 273 273 271 269 269 268 267 267 266 268 267 267 266 265 264 264 263 264 263 263 262 261 261 261 260 261 261 261 261 261 262 262 262 263 263 264 264 264 264 264 265 265 266 267 269 270 272 273 274
272 272 276 278 280 280 281 280 280 280 281 281 281 281 281 281 281 280 280 280 279 279 278 278 278 278 279 278 278 277 277 276 276 275 275 274 273 272 271 270 269 267 267 266 265 265 265 265 265 264 263 263 263 262 262 262 262 261 260 260 260 259 259 260 260 260 260 261 261 261 261 262 262 262 263 263 263 263 264 264 265 266 267 269 270 272 273
275 277 278 278 279 279 279 280 281 281 281 281 281 281 281 280 279 279 278 278 278 278 278 278 277 276 276 276 275 274 274 274 273 272 271 271 270 269 268 267 267 265 265 264 264 263 262 263 262 262 261 261 261 261 261 261 261 260 259 259 259 259 259 259 259 260 260 260 260 260 260 261 261 262 261 262 262 263 265 266 266 266 266 267 269 271 272
270 271 274 277 272 272 277 280 281 281 282 281 281 280 279 278 278 278 277 275 275 275 275 275 275 273 274 274 273 271 271 271 270 269 268 268 267 266 266 266 265 264 263 262 261 260 260 261 261 260 260 260 261 261 261 261 260 259 259 259 258 258 259 259 259 259 259 260 260 260 260 260 260 261 264 267 265 263 263 267 270 271 271 268 269 270 271
271 276 278 279 279 278 279 280 281 282 281 280 279 278 279 278 277 276 275 274 273 272 272 273 271 271 271 270 270 269 268 268 268 267 266 265 265 264 264 263 262 261 261 260 260 259 259 260 259 259 259 259 260 260 260 260 260 259 259 258 258 258 258 259 259 259 259 259 259 260 260 260 260 260 260 262 267 268 269 269 270 271 272 273 274 275 273
278 280 280 280 279 277 279 281 281 281 279 278 278 279 277 276 273 272 271 272 272 271 270 269 269 269 268 268 267 265 266 266 265 265 265 264 264 263 262 261 260 259 259 258 258 258 258 258 258 259 258 259 259 260 260 260 260 259 258 258 257 258 258 258 258 259 259 259 259 259 259 260 259 259 259 259 260 265 268 268 269 270 272 273 274 275 276
277 280 281 281 280 280 281 280 276 274 273 275 277 276 273 272 270 269 269 269 268 267 267 267 267 267 265 265 265 264 263 263 263 263 262 262 262 261 260 259 258 258 258 258 258 258 258 258 258 258 258 258 259 259 260 259 259 258 258 257 257 257 257 258 258 258 258 258 258 259 258 258 259 259 259 259 258 259 262 267 269 270 271 272 273 273 274
281 281 281 281 281 281 279 276 275 272 271 271 270 269 269 268 268 267 267 266 266 266 265 265 264 264 264 262 262 262 261 261 261 261 260 260 260 259 258 258 258 258 258 258 258 257 257 257 257 258 257 258 259 259 259 259 258 258 257 257 257 257 257 257 257 258 258 258 258 258 259 259 259 259 259 259 259 259 259 260 262 265 268 269 270 271 272
281 282 280 278 278 279 279 276 276 272 269 268 268 268 266 266 265 265 264 264 264 264 263 263 262 261 261 261 260 260 259 260 259 259 259 258 258 258 258 257 257 257 257 257 257 257 257 257 257 257 258 258 259 259 258 258 258 257 257 257 257 257 258 258 258 258 258 258 258 258 258 258 259 259 259 259 259 259 259 259 259 259 261 263 267 270 268
281 278 278 276 275 277 275 269 268 267 267 266 266 265 264 263 263 261 261 263 263 262 262 261 260 258 258 259 258 257 258 257 257 257 257 257 258 257 257 257 257 257 256 256 256 257 257 257 258 257 257 258 258 258 258 258 257 257 257 257 257 257 258 258 258 258 258 258 259 258 258 259 259 259 259 259 259 259 260 260 260 260 261 263 264 268 271
278 272 270 271 271 268 267 267 266 266 265 264 264 263 261 260 260 261 262 262 261 260 260 259 259 258 257 257 257 256 256 256 256 256 256 257 257 257 257 256 256 256 256 256 256 257 258 258 257 257 257 258 258 258 258 258 257 257 257 257 257 257 258 258 258 258 258 259 259 259 260 259 259 259 260 260 260 260 260 260 261 262 262 263 264 265 269
270 266 265 265 265 266 266 266 267 265 263 263 262 261 261 260 261 261 260 260 259 258 258 258 257 256 256 255 255 255 254 254 255 255 256 256 256 256 256 256 256 256 257 257 258 258 257 257 257 256 257 258 258 258 258 257 257 257 257 257 257 257 258 258 258 259 259 259 259 260 260 260 260 260 260 260 260 260 260 260 261 261 261 262 263 262 262
263 262 262 263 263 263 265 266 264 263 262 261 261 261 260 260 259 259 259 259 257 257 256 255 255 255 255 254 254 255 255 254 255 255 255 255 255 255 256 256 255 256 256 257 257 257 257 256 256 256 258 258 258 258 258 257 257 257 258 258 258 259 259 259 260 259 259 259 259 259 259 259 259 260 259 260 260 260 260 261 261 261 262 262 263 263 264
262 260 260 262 262 262 261 262 262 262 261 260 259 260 259 258 257 256 256 256 256 255 255 254 254 254 254 254 254 254 253 253 253 253 253 254 254 255 256 256 257 257 257 257 257 257 256 256 256 257 258 258 258 258 258 258 258 257 257 258 258 258 259 259 259 259 259 259 259 259 259 259 259 259 259 259 259 260 260 260 260 261 262 263 264 265 267
260 262 264 261 259 259 260 262 261 260 259 258 258 258 258 257 256 256 255 255 255 254 254 253 254 254 253 253 253 252 252 252 252 252 253 253 254 255 256 257 258 258 257 257 257 257 256 256 257 258 258 258 258 258 258 258 257 257 257 258 258 258 258 259 259 259 259 259 259 259 259 259 260 259 259 260 260 260 260 261 261 262 262 263 265 267 269
265 265 263 260 260 263 263 261 259 257 258 257 257 257 256 256 255 254 254 254 254 253 253 253 253 253 253 252 252 251 251 251 252 253 253 253 254 255 256 258 258 257 257 257 257 258 258 258 258 258 258 258 258 258 258 257 257 257 257 257 258 258 258 259 259 259 259 259 259 260 260 260 260 260 260 261 261 261 261 262 262 263 263 264 266 268 271
258 258 258 258 257 256 256 256 255 256 255 255 255 255 254 254 254 253 254 253 253 253 254 254 253 253 252 251 251 250 250 250 251 252 253 253 254 255 257 257 256 256 256 256 257 258 258 258 257 257 257 257 257 257 257 257 257 257 257 257 258 258 259 259 259 259 259 259 260 260 260 260 260 261 261 261 261 261 262 262 263 263 264 265 266 268 270
256 256 255 255 254 253 253 254 254 254 254 253 253 253 253 252 253 253 252 253 254 254 254 253 253 252 251 250 250 250 251 252 252 252 252 253 254 256 256 255 255 255 255 255 257 258 257 257 257 257 257 257 257 257 257 257 257 257 258 258 258 258 259 259 259 259 260 260 260 260 261 261 262 262 262 262 262 262 262 263 263 264 265 265 267 268 270
255 254 254 254 254 253 252 253 253 252 252 252 252 252 252 252 252 252 252 252 252 252 252 252 251 250 250 250 251 251 251 251 252 252 253 254 255 255 255 255 255 254 255 255 257 257 257 257 257 257 257 256 256 256 256 257 257 258 258 258 258 258 258 258 259 259 259 260 260 261 261 262 263 263 263 263 263 263 264 264 265 266 266 267 268 269 269
254 254 253 253 252 252 251 251 251 251 250 250 250 251 251 251 251 251 251 251 251 252 252 251 251 251 251 251 251 250 250 251 251 251 252 253 254 254 254 255 255 256 255 256 257 257 257 257 257 256 256 256 256 256 256 257 257 257 257 257 258 258 258 258 259 259 259 260 260 261 261 261 262 262 263 264 265 265 266 266 266 267 267 268 268 268 267
254 254 253 253 252 251 251 251 250 249 249 249 250 250 250 250 251 250 250 251 251 251 251 251 251 250 250 249 249 250 250 250 251 252 252 253 255 254 254 255 255 255 256 257 256 256 256 256 256 255 255 255 256 256 256 257 257 257 257 257 257 258 258 258 258 259 259 260 260 260 260 261 261 261 262 262 262 263 263 263 263 263 263 263 263 263 264
253 253 252 252 251 251 251 251 250 250 250 249 249 249 250 250 250 250 250 250 251 251 251 251 250 250 250 249 249 250 251 251 252 252 253 254 254 254 255 256 256 255 256 256 256 256 256 256 255 255 255 256 256 256 256 256 257 256 256 256 257 257 258 258 258 258 258 259 259 259 260 260 260 261 261 261 261 261 261 261 261 261 261 261 261 261 261
252 252 252 252 251 251 251 250 250 250 249 249 249 249 249 249 250 249 249 249 249 250 250 249 249 249 249 249 249 250 250 252 253 253 254 255 254 254 254 254 256 257 256 256 256 256 256 255 255 255 255 256 256 256 256 256 256 255 255 256 256 256 257 257 257 257 258 258 258 258 258 259 259 259 260 260 260 260 260 260 260 260 260 260 260 260 260
252 252 251 251 251 250 250 250 250 249 249 249 249 249 249 250 249 248 249 249 249 249 248 249 250 250 249 250 250 251 251 252 253 254 255 254 254 254 253 255 257 257 256 256 256 256 255 255 255 255 255 256 256 256 256 255 255 255 255 255 255 256 256 256 256 257 257 258 258 258 258 258 258 258 258 259 259 259 259 259 259 259 259 259 259 259 259
250 249 249 249 249 249 249 249 249 249 249 250 250 249 249 249 248 248 248 248 248 248 248 248 249 250 251 250 250 250 252 254 254 254 255 255 255 255 254 255 257 256 256 256 256 256 255 255 255 255 256 256 255 255 255 255 255 254 254 254 255 255 255 255 256 256 256 256 256 257 257 257 257 257 257 257 258 258 258 258 258 258 258 258 258 257 257
249 249 248 248 249 250 249 249 248 248 248 249 251 250 249 249 248 248 248 248 248 249 249 249 249 249 250 251 251 253 255 256 255 255 255 255 255 256 255 255 256 256 256 256 256 255 255 255 255 255 255 255 255 255 255 254 254 254 254 254 254 254 254 255 255 255 255 255 256 256 256 257 256 256 256 256 257 257 257 257 257 257 257 257 257 257 257
248 248 248 248 248 247 248 248 248 248 249 250 249 248 248 248 248 248 248 248 248 249 250 251 251 252 253 254 255 256 256 256 256 255 254 253 254 255 256 256 256 256 255 255 255 255 254 254 255 255 255 255 255 254 254 254 254 254 254 253 253 254 254 254 254 254 255 255 255 256 256 256 256 256 256 256 256 256 256 256 256 256 257 256 256 256 257
248 248 248 248 247 246 248 248 248 248 248 248 248 248 249 248 248 248 248 248 248 249 251 252 252 253 254 255 256 256 256 256 256 256 256 255 254 255 256 256 255 255 255 255 255 254 254 254 255 255 255 254 254 254 254 254 254 254 253 253 253 253 253 254 254 254 254 254 255 255 255 255 255 256 256 256 256 256 256 256 257 257 257 256 256 256 256
247 246 246 245 245 246 246 246 247 247 247 247 246 248 250 250 250 250 251 250 250 250 251 252 254 255 257 257 256 255 255 255 255 256 256 256 256 256 255 255 255 255 255 254 254 254 254 254 254 254 254 254 254 254 254 254 254 253 253 253 253 253 253 253 253 253 254 254 254 254 255 255 255 255 255 255 255 256 256 256 256 256 256 256 256 256 256
244 245 245 244 244 245 244 243 243 244 244 247 248 249 250 250 250 250 251 252 252 253 254 255 256 256 256 256 256 256 256 254 253 255 256 255 256 255 255 255 255 254 254 254 253 253 253 253 254 253 254 253 254 254 254 254 253 253 253 253 253 253 253 252 253 252 253 253 253 254 254 254 254 255 255 255 255 255 255 255 256 256 257 256 256 255 255
243 243 244 244 244 244 244 246 246 248 249 249 247 250 251 250 251 252 253 254 254 255 255 255 255 256 256 256 256 256 257 256 255 254 256 256 256 255 255 255 254 254 254 254 253 253 253 253 253 253 253 253 253 253 253 253 253 253 253 253 253 253 253 253 252 252 252 252 252 253 253 253 253 254 254 254 254 254 254 254 254 255 255 255 255 255 255
244 244 246 247 247 247 247 248 249 249 250 250 250 251 252 252 253 254 255 255 255 255 255 255 255 256 256 256 256 256 256 256 256 256 256 255 255 255 255 254 254 254 253 253 253 253 253 253 253 252 253 253 253 253 253 253 253 253 253 253 253 253 253 252 253 252 252 252 252 252 252 252 252 252 253 253 253 254 254 254 254 253 253 254 254 254 254
247 247 247 248 248 249 246 247 248 249 249 250 251 253 254 254 253 254 254 255 255 254 254 254 255 256 256 255 256 256 256 255 255 255 255 255 255 255 254 254 254 253 253 253 253 252 253 253 253 252 252 253 253 253 253 252 252 253 252 252 252 252 252 252 252 252 252 252 252 252 252 252 252 251 252 252 252 252 253 253 253 253 253 254 254 254 253
244 245 246 247 248 247 248 248 248 250 250 252 253 253 254 254 254 253 254 254 254 253 254 253 253 255 256 255 255 255 255 255 255 255 255 255 254 254 254 253 253 253 252 252 252 252 252 252 252 252 252 252 252 252 252 252 252 252 252 252 252 252 252 252 252 252 251 251 251 251 251 251 251 251 251 251 251 251 252 252 252 252 252 253 253 253 253
Wind_Speed
16 18 20 19 18 16 18 18 18 20 20 18 20 20 20 16 14 17 12 16 16 16 18 12 5 7 7 7 5 3 2 3 4 3 2 2 4 4 4 5 5 5 6 6 6 6 6 7 8 9 8 9 10 11 10 9 9 9 10 10 11 10 11 11 10 10 9 8 7 9 10 10 11 12 12 10 9 8 10 10 9 9 10 10 11 10 8
14 17 17 16 16 14 15 15 17 17 18 21 21 22 18 19 20 18 17 18 23 19 20 4 5 5 4 3 3 2 4 4 4 4 4 3 5 5 6 6 6 6 7 6 6 6 7 8 9 9 8 8 9 10 11 11 11 10 11 11 11 11 10 10 10 11 11 9 9 9 10 11 12 12 12 12 11 11 9 9 9 9 9 9 10 11 11
7 7 9 7 9 11 12 12 14 15 16 18 17 17 18 17 13 16 19 19 20 10 2 6 6 5 2 2 3 2 2 3 5 5 5 4 4 6 6 7 7 7 7 8 7 8 8 8 9 9 9 8 8 9 9 9 10 10 10 11 11 10 11 11 11 11 10 10 10 10 10 10 9 10 12 11 11 11 10 8 10 10 10 10 9 8 10
10 10 12 12 15 16 17 16 17 20 21 20 15 16 11 11 15 19 20 18 17 1 3 5 5 4 4 3 3 3 2 2 4 5 5 5 5 6 7 7 7 8 8 8 9 9 9 9 9 9 9 8 9 9 9 9 9 9 9 10 10 10 10 11 12 12 11 11 10 10 10 9 10 9 9 10 10 10 10 11 9 8 10 10 10 10 9
8 9 9 9 6 7 12 18 19 20 20 19 20 18 17 20 21 18 16 15 2 4 4 5 4 5 3 4 5 4 4 4 4 6 7 7 7 7 7 8 7 8 8 8 9 10 9 9 10 11 10 10 10 10 10 10 9 9 10 10 10 11 10 10 10 10 11 11 12 11 10 10 11 11 10 9 9 10 10 10 9 9 11 11 11 10 10
6 7 4 3 3 10 10 1 5 12 17 16 18 17 17 19 15 6 2 1 2 3 3 2 1 2 4 5 5 3 5 5 6 7 8 8 8 8 8 7 7 7 7 7 8 9 10 10 10 10 10 10 10 10 10 9 9 10 10 11 10 11 11 11 11 11 10 9 11 12 12 12 12 12 12 11 10 10 10 10 9 10 11 10 10 10 10
8 7 1 7 14 13 2 2 3 5 6 4 8 16 17 8 2 1 2 4 4 6 3 3 2 4 6 6 6 7 6 6 7 8 9 9 9 9 9 9 8 7 8 8 9 9 9 9 10 10 10 10 11 11 10 9 9 10 10 11 11 10 11 11 10 9 9 9 10 11 12 13 13 13 13 12 11 10 9 10 10 10 10 11 12 11 10
6 3 6 14 12 3 4 2 1 1 2 7 8 13 14 5 4 6 6 6 6 7 3 3 4 6 7 7 8 9 9 8 8 9 9 10 10 10 9 9 9 8 8 9 10 10 10 9 10 10 11 11 10 11 10 9 10 9 10 9 11 10 10 10 9 10 9 10 10 10 11 12 13 14 14 13 13 11 11 10 9 9 10 9 12 14 12
11 8 10 13 6 11 10 9 3 7 7 6 6 10 3 6 6 7 7 6 6 4 6 5 5 4 3 7 10 10 9 10 10 10 11 12 11 11 10 9 9 8 8 9 10 10 10 10 10 10 10 9 9 10 10 9 9 9 10 10 11 11 10 11 10 10 10 9 10 11 11 12 12 13 14 15 14 11 11 12 12 10 10 11 10 11 14
10 13 15 14 10 9 3 1 1 2 1 2 1 2 5 4 4 4 7 7 5 5 4 5 4 2 2 7 9 6 7 8 11 11 10 11 10 9 9 8 8 8 8 8 9 9 11 12 11 9 9 8 9 10 10 10 9 10 10 11 12 10 11 10 11 11 9 9 10 11 11 12 13 13 14 13 13 12 12 13 14 13 12 11 11 11 13
9 8 11 10 9 6 5 7 2 0 2 0 4 1 7 4 8 4 5 5 4 5 5 4 6 4 5 8 8 6 2 5 7 9 9 10 10 10 10 9 9 9 8 8 9 10 11 13 12 11 10 9 9 9 10 11 11 11 11 12 12 11 12 12 12 10 9 9 10 12 12 13 12 13 14 14 13 12 12 12 14 13 12 12 12 11 11
10 11 10 12 4 3 2 1 1 3 1 3 1 9 6 2 8 7 5 4 2 3 4 4 6 7 8 8 9 8 5 5 6 9 10 10 10 10 10 8 6 6 8 9 11 12 12 13 12 10 9 9 9 11 11 11 11 11 12 12 12 12 13 13 11 10 9 10 10 10 12 13 13 13 13 13 13 12 12 12 13 14 14 13 15 13 11
12 14 10 8 8 5 2 4 1 4 2 1 6 15 2 6 6 3 4 5 4 3 4 4 6 8 11 10 12 12 5 2 7 8 9 10 10 10 10 8 5 7 8 9 11 13 12 12 10 8 6 7 10 11 11 11 12 12 12 12 13 14 13 13 13 12 11 11 12 12 11 13 14 14 13 14 14 14 13 13 13 15 16 16 15 15 13
12 11 11 10 8 3 5 0 6 3 2 5 11 3 3 7 6 5 6 6 5 4 5 6 8 10 10 11 10 10 11 11 11 10 10 11 11 10 8 6 6 6 8 10 12 13 13 12 10 8 6 9 12 12 12 13 13 14 13 14 14 13 14 14 13 13 13 12 12 12 12 12 14 15 14 14 14 14 13 14 17 19 19 16 15 15 13
0 4 6 8 10 1 5 7 3 2 4 5 2 3 1 3 5 6 7 7 9 8 8 10 11 12 12 11 11 11 12 12 12 12 11 9 9 10 10 9 5 5 9 12 13 14 12 12 10 8 10 12 12 12 14 16 15 15 15 15 15 15 15 15 15 16 15 14 14 12 14 13 15 17 16 14 14 14 15 16 17 19 20 18 16 15 14
9 8 8 5 3 1 6 7 5 4 8 0 3 1 3 5 6 4 4 8 9 9 10 10 10 11 11 12 12 12 12 12 12 11 9 6 6 7 8 8 9 7 10 11 13 14 13 11 9 8 8 11 13 15 18 16 16 15 14 15 15 16 16 16 16 15 15 16 15 15 15 15 15 16 17 16 15 14 15 15 15 16 16 15 15 15 15
4 6 8 2 1 1 3 6 5 3 6 4 5 3 5 5 6 6 6 9 9 9 10 11 11 11 11 13 13 12 11 11 10 7 6 6 7 8 9 10 9 7 9 12 13 15 15 13 11 9 8 10 14 17 17 15 15 16 17 17 17 17 17 17 17 17 17 16 17 16 16 16 17 17 18 16 16 15 14 15 15 16 16 15 15 15 14
6 9 11 5 10 10 6 8 7 9 11 12 7 5 7 8 9 6 7 8 9 7 7 8 9 11 12 12 11 10 10 9 8 5 6 7 8 8 8 9 8 8 9 10 12 14 18 15 12 10 9 9 14 16 16 15 16 16 17 19 19 19 19 18 18 17 18 19 18 17 17 15 16 16 17 16 15 15 14 15 15 15 16 15 15 15 15
10 12 11 10 15 13 12 11 9 10 11 11 9 8 9 9 8 6 7 8 9 9 6 9 11 12 11 10 10 9 8 7 7 7 8 9 8 8 8 8 8 9 9 11 13 14 17 16 12 10 10 11 12 13 15 15 16 16 17 18 20 20 19 17 18 17 18 16 16 16 16 15 15 15 14 14 14 15 14 15 15 16 16 16 16 16 16
15 18 18 15 13 15 15 10 13 14 11 10 10 9 9 9 7 7 6 4 8 5 6 8 9 11 8 6 7 7 7 7 6 7 8 9 9 8 7 9 8 9 9 11 14 15 15 15 13 13 12 12 12 13 14 14 15 16 18 17 18 20 20 18 18 17 17 21 20 16 16 15 15 14 14 13 14 15 15 14 15 16 15 16 16 15 15
13 17 20 18 18 20 19 15 12 11 11 12 12 10 8 8 9 7 4 4 5 5 6 2 4 6 5 3 6 8 7 6 6 7 7 8 9 9 10 9 7 9 11 12 13 14 16 14 14 14 14 13 12 14 15 14 16 17 18 21 20 22 20 20 18 18 17 16 16 16 16 16 15 15 14 14 15 16 16 14 15 16 16 17 18 17 16
12 13 14 11 8 11 12 11 11 11 11 10 11 8 5 6 8 6 5 3 1 0 1 2 3 4 5 3 5 6 6 6 8 8 9 8 9 9 8 8 9 10 9 10 14 15 15 13 13 14 15 14 13 13 13 14 15 16 18 20 20 20 18 17 18 17 16 17 16 16 17 16 16 17 20 25 21 18 17 22 29 32 29 22 20 17 18
13 15 14 11 13 15 17 16 12 7 4 5 8 9 10 7 4 2 3 4 3 3 3 1 2 4 5 5 5 6 6 6 7 8 9 10 10 9 9 10 11 10 11 12 13 15 14 13 14 14 14 13 14 13 13 13 14 15 18 18 19 17 17 16 17 18 18 17 17 17 17 18 17 18 17 16 24 30 31 30 30 33 34 36 38 36 27
19 19 17 14 10 14 16 14 12 5 3 5 9 7 2 1 3 3 1 1 2 2 2 1 2 3 4 5 5 7 7 7 8 8 8 8 9 10 9 8 11 14 14 13 13 15 14 13 14 14 15 16 14 13 13 13 12 14 17 18 18 18 16 16 18 18 17 18 18 18 17 16 17 17 17 18 17 21 27 28 30 32 33 33 33 33 35
17 18 16 13 11 12 11 7 3 0 2 3 5 4 2 3 3 2 1 1 2 0 2 2 1 3 4 5 5 7 7 8 8 9 10 8 8 8 9 10 10 11 12 12 13 13 14 15 14 13 13 14 12 11 13 13 13 16 17 17 19 19 17 17 17 18 17 17 16 16 17 17 17 16 17 16 18 17 16 23 28 27 27 31 32 31 30
18 18 16 13 11 13 3 2 6 5 4 3 1 2 4 4 3 2 1 1 1 1 1 2 2 2 3 4 5 7 8 8 8 9 9 8 7 8 8 9 11 11 12 13 13 14 15 15 14 14 14 15 12 13 14 14 15 16 17 18 19 17 16 17 17 17 16 16 16 16 16 16 16 16 16 17 17 18 18 16 16 20 26 29 30 32 33
14 14 12 11 13 16 8 9 7 5 5 3 3 4 3 3 3 2 2 1 1 1 1 2 2 3 3 4 6 7 8 10 9 8 7 9 9 9 8 9 12 13 14 13 13 14 16 15 14 14 14 15 15 14 15 15 16 16 16 18 17 20 26 21 16 16 16 16 16 16 16 16 15 16 16 16 16 17 16 17 16 16 15 15 19 25 23
11 4 6 11 14 13 3 5 5 5 4 4 4 3 3 2 2 2 2 3 3 3 2 2 3 4 5 5 6 8 7 8 8 9 9 9 9 9 9 11 13 13 12 12 13 13 13 12 14 14 16 17 15 15 15 15 15 15 18 17 17 15 15 17 16 15 15 15 16 16 15 15 16 16 16 16 16 16 16 16 16 16 15 15 15 18 28
7 4 1 2 4 4 4 3 3 4 5 4 4 3 3 2 1 2 2 2 1 1 1 0 2 2 4 6 5 7 7 8 9 10 10 10 10 10 11 11 11 11 11 13 13 12 13 14 16 15 15 16 15 13 13 15 15 17 17 16 15 14 14 14 15 15 15 15 15 16 17 18 17 16 16 16 16 16 15 15 16 14 14 14 14 15 18
3 3 1 1 2 1 3 4 4 4 3 3 3 3 2 3 1 2 1 1 1 2 2 2 4 4 5 6 5 6 8 10 10 10 11 11 11 10 10 10 10 10 10 10 10 12 14 15 13 15 15 13 12 14 15 14 15 16 17 17 16 15 14 14 15 16 16 15 16 20 17 15 14 14 14 14 14 15 15 15 16 16 15 15 16 15 15
4 4 2 1 2 2 4 3 3 3 3 2 1 1 2 1 1 1 1 1 2 2 3 4 5 6 5 5 6 7 8 10 11 12 12 12 11 10 10 9 10 11 12 13 15 14 14 14 14 16 15 14 15 16 17 16 15 15 14 14 14 19 23 25 20 16 15 15 15 15 15 14 13 14 14 14 14 14 14 13 14 14 14 14 13 13 12
4 3 3 1 1 2 2 2 3 3 2 2 1 1 1 2 1 2 3 3 3 4 5 6 6 6 6 5 7 8 9 10 10 11 10 10 9 9 9 9 9 11 13 14 13 12 13 15 17 14 12 15 16 16 15 15 14 13 13 13 14 13 16 23 17 17 15 15 14 14 15 14 14 14 14 14 13 13 13 13 14 13 13 13 13 12 12
2 3 6 4 3 4 4 2 3 2 2 1 1 2 2 2 2 3 3 4 5 5 6 7 6 5 5 5 6 7 8 10 10 10 9 8 8 9 9 9 9 10 12 12 12 12 12 14 14 14 15 16 16 15 14 14 14 13 13 13 13 14 15 16 18 16 15 15 14 14 13 13 13 13 13 14 13 13 13 13 13 13 13 13 14 14 13
5 4 0 2 1 2 4 3 3 1 0 1 2 2 3 3 3 4 5 5 6 8 7 6 5 5 5 7 8 8 9 8 8 7 8 9 9 9 10 10 10 11 11 11 12 10 10 12 14 15 16 15 15 13 14 13 13 13 13 13 13 13 14 14 15 14 13 14 13 15 14 14 13 13 13 13 12 12 13 13 13 13 13 13 13 12 14
5 5 5 4 4 4 3 2 1 0 2 3 3 3 3 4 4 5 6 7 8 8 7 7 6 6 6 7 8 8 8 8 9 9 9 9 9 10 10 11 13 11 12 11 8 8 9 12 13 14 15 16 14 13 12 13 13 13 14 13 14 13 13 13 13 13 13 13 13 13 13 13 13 13 13 13 12 12 12 12 12 12 11 12 12 12 13
4 4 4 3 3 3 2 1 1 1 2 4 5 5 5 4 5 6 8 8 8 8 8 8 7 7 7 8 8 8 8 9 8 9 10 9 10 10 10 12 12 13 12 12 9 7 11 12 16 20 16 14 13 12 12 13 14 14 14 13 13 12 13 13 13 13 13 12 12 12 12 15 16 14 13 12 12 11 11 11 12 11 11 11 11 11 10
4 4 3 2 1 1 1 1 2 3 4 4 4 5 7 6 5 6 5 6 7 7 6 6 6 7 8 8 8 8 8 8 7 8 9 9 9 9 10 11 11 10 10 9 9 10 12 11 17 23 16 12 12 12 14 20 13 13 13 12 11 12 12 12 12 12 12 11 11 12 13 12 11 11 11 10 11 10 10 10 10 10 10 10 10 10 9
2 3 1 1 1 1 3 3 2 2 4 5 5 5 6 7 7 7 6 6 6 7 6 7 8 8 8 8 7 9 9 9 9 10 11 11 9 10 11 9 9 7 8 9 12 14 12 15 20 15 12 10 11 12 15 20 21 15 11 11 11 12 12 11 12 11 11 11 11 11 11 10 10 9 9 9 9 9 8 8 8 8 7 7 6 5 5
2 2 1 0 0 2 3 3 2 2 3 6 8 8 7 7 7 6 7 7 8 6 6 7 7 7 7 8 8 8 10 11 12 12 13 13 9 8 9 9 9 8 7 8 11 12 12 13 13 12 11 10 13 12 14 18 21 12 11 11 12 11 11 11 11 11 11 11 10 10 11 11 10 10 9 8 8 8 7 8 7 7 6 6 5 5 5
1 0 1 1 2 3 2 4 2 4 4 4 5 8 7 6 6 6 7 8 8 7 7 6 6 7 7 8 9 9 10 11 10 11 13 10 8 9 10 8 6 4 4 11 11 10 13 18 13 9 10 10 11 11 12 17 17 11 10 10 11 11 10 11 11 10 10 10 11 12 10 10 10 10 9 9 8 8 8 8 8 7 7 6 6 6 6
1 1 1 2 3 3 2 3 5 4 4 5 5 6 6 6 7 7 9 9 8 7 7 6 7 7 9 9 10 11 12 10 11 12 9 7 8 7 7 8 4 3 7 9 11 11 12 11 9 10 9 11 10 13 13 16 12 9 10 10 10 10 10 11 10 10 10 10 10 10 10 10 10 10 10 9 9 8 7 7 7 7 7 7 7 7 7
1 1 3 3 3 3 3 3 4 5 6 5 6 6 7 7 7 9 9 8 8 8 8 8 8 10 9 10 9 10 11 13 12 8 5 6 7 6 8 7 4 4 12 16 13 11 8 7 8 8 9 12 11 18 20 12 9 9 9 10 10 10 10 10 10 10 10 9 9 9 9 9 9 9 10 9 9 9 8 8 7 7 7 7 7 7 7
1 2 3 3 3 3 3 4 4 5 6 7 6 7 8 7 7 7 7 8 8 8 8 8 8 9 9 8 8 9 9 6 5 5 7 5 6 8 8 8 6 7 15 13 10 8 7 6 7 7 14 14 13 20 17 9 9 9 9 10 10 10 9 9 9 10 9 9 9 9 9 9 9 9 9 9 9 9 9 9 8 8 7 8 7 7 7
2 3 3 3 4 3 3 4 5 5 6 7 6 6 7 8 8 8 8 8 8 8 8 8 8 8 8 8 7 6 6 5 5 4 5 6 6 4 5 3 6 11 15 10 8 7 6 6 6 13 17 18 19 19 11 9 9 9 9 9 9 9 9 9 9 9 9 10 9 9 9 10 9 8 8 8 8 8 8 8 8 8 8 7 8 7 8
3 3 3 3 4 4 4 3 4 6 6 6 7 8 8 8 8 8 7 7 8 8 7 7 7 7 6 6 6 6 5 5 4 4 4 5 6 3 1 3 8 8 9 12 7 6 5 6 11 16 15 17 17 16 8 10 9 9 9 9 9 9 9 9 9 9 9 9 9 9 9 9 8 9 8 8 9 8 9 9 9 9 9 8 8 8 8
3 2 2 3 4 4 4 4 5 5 6 6 6 8 8 7 7 8 7 8 8 8 7 7 7 8 8 7 5 4 4 5 5 5 5 6 5 5 6 9 8 8 12 12 5 5 5 12 15 15 16 15 15 8 7 8 8 9 9 10 9 9 9 9 9 9 9 9 9 9 9 8 8 8 9 8 8 8 9 9 8 9 9 9 9 8 8
3 3 4 3 5 5 5 4 4 5 5 4 5 6 6 6 6 5 7 9 8 8 8 7 7 8 7 6 4 4 4 5 4 3 3 3 3 6 8 11 11 11 9 6 6 5 7 9 11 15 15 15 12 6 7 8 9 7 7 8 10 9 9 8 9 9 9 9 10 9 9 9 9 8 9 9 9 9 8 9 9 9 9 9 8 9 9
2 3 5 3 6 6 4 3 2 3 4 6 5 6 7 7 7 7 8 7 7 6 5 5 5 5 4 3 2 2 3 2 4 4 0 1 3 5 6 5 7 10 10 7 6 6 10 13 14 14 14 13 7 6 8 8 8 8 8 8 9 10 9 8 8 9 9 8 9 8 9 9 9 9 8 8 8 9 8 8 8 8 8 8 8 8 9
3 4 5 5 3 5 3 3 3 4 3 4 4 6 6 7 7 7 6 6 5 4 4 4 4 3 2 1 2 2 2 2 3 5 4 4 5 6 7 7 8 9 6 5 5 4 8 12 12 13 13 10 7 7 7 7 7 7 7 8 7 8 8 8 8 8 7 8 8 8 8 8 8 8 8 8 8 8 8 9 9 8 7 7 7 7 7
3 2 2 2 2 3 3 2 3 4 5 5 4 6 6 4 4 4 4 4 4 4 4 3 3 2 2 2 2 2 2 3 4 5 6 6 6 6 6 5 5 7 6 5 5 5 6 11 10 11 9 6 6 6 6 7 7 7 7 7 7 6 7 8 8 10 8 8 8 8 8 7 8 9 8 7 8 9 8 7 6 8 11 8 7 7 7
2 2 2 3 2 3 5 4 5 5 3 4 4 5 5 4 4 5 4 5 4 4 4 4 3 2 2 2 2 3 3 3 4 4 5 5 5 5 5 5 5 5 5 5 4 6 6 5 6 7 7 6 6 6 6 6 6 6 7 7 7 6 7 8 7 7 8 8 7 7 7 8 7 6 6 7 7 7 7 7 7 7 7 6 6 6 5
2 3 3 2 2 3 4 5 4 3 4 4 4 4 4 4 4 4 4 4 4 4 4 5 4 3 2 3 3 3 3 4 4 4 4 5 5 4 4 5 4 4 4 4 4 5 4 5 5 6 6 5 5 5 6 7 6 6 6 6 6 6 6 6 7 6 7 7 7 6 7 7 6 6 6 6 6 6 6 6 6 5 5 5 5 5 5
Wind_Direction
262 265 270 272 273 270 274 274 276 274 272 270 263 260 267 273 257 270 285 285 280 276 276 281 176 176 184 170 184 182 197 203 214 238 257 326 348 348 340 334 337 330 337 333 332 335 333 329 329 329 330 336 338 341 337 340 342 343 343 339 337 338 338 339 338 333 330 329 331 337 332 330 330 330 330 325 322 319 318 316 314 306 294 285 279 267 251
260 264 266 270 274 279 275 269 267 268 269 266 267 274 279 272 272 282 290 284 279 284 282 230 151 147 150 164 166 197 204 222 223 242 266 293 330 336 333 328 329 327 323 318 314 316 317 321 323 324 324 330 334 332 331 332 337 339 342 336 334 333 333 332 331 330 329 327 332 334 335 335 332 329 328 328 327 324 317 311 311 309 302 288 277 274 269
248 236 249 253 257 268 264 261 260 258 254 259 261 272 267 273 274 266 265 267 268 268 100 124 141 149 137 200 221 223 229 205 222 235 254 281 311 327 327 323 325 320 318 317 316 313 315 317 319 321 318 320 321 318 317 322 325 332 333 328 327 327 327 328 326 325 326 327 329 329 327 327 324 325 325 324 322 319 318 317 315 312 311 302 286 267 264
275 270 277 278 279 273 268 267 258 256 258 262 257 255 264 273 274 273 275 270 268 170 110 115 151 173 194 243 256 263 272 246 246 248 256 270 287 305 314 314 313 317 316 320 318 316 315 314 316 317 317 314 313 312 312 311 315 319 320 317 318 317 319 323 324 325 326 326 327 325 326 323 321 313 310 310 312 312 315 319 317 315 307 295 295 289 275
248 254 268 286 289 281 262 243 242 250 254 253 259 257 255 251 263 266 261 265 327 125 143 150 182 180 242 248 261 258 271 262 257 264 262 269 279 289 302 305 304 306 314 311 311 310 310 313 314 314 316 312 310 313 311 310 313 313 313 313 312 313 314 316 316 317 322 325 325 324 326 325 319 312 305 306 308 314 314 311 309 305 309 302 290 281 275
271 278 286 80 278 245 240 128 227 238 250 250 251 252 246 244 239 268 335 96 138 129 146 158 186 199 239 255 256 262 267 276 272 262 259 262 272 282 287 291 297 299 301 302 302 301 298 299 303 307 309 305 303 305 304 303 307 308 309 309 308 308 310 310 313 314 316 320 319 319 320 320 319 312 308 303 305 307 305 307 308 303 303 297 296 292 280
268 278 69 275 237 252 36 43 359 20 358 325 270 267 268 271 78 112 135 139 147 167 139 188 227 265 271 268 265 269 266 264 264 271 274 269 269 276 284 286 290 291 293 295 296 298 301 302 303 301 300 300 301 299 298 297 299 302 303 303 303 303 302 303 307 308 311 314 314 315 318 319 318 312 306 303 304 304 303 301 302 300 301 299 300 295 287
273 209 212 253 262 80 297 231 224 350 316 268 275 272 255 235 197 195 189 168 152 168 178 230 242 263 279 289 276 268 272 266 257 262 260 259 257 265 271 278 281 286 291 296 300 299 298 297 295 297 294 299 299 295 296 293 296 295 294 294 294 299 299 301 303 304 307 308 308 310 311 313 313 311 309 304 304 304 300 295 288 288 288 286 290 296 292
255 238 234 243 317 296 264 270 216 197 229 229 218 268 287 144 201 191 164 165 173 176 216 227 245 268 308 287 273 252 242 256 254 248 253 253 253 257 260 263 272 283 292 293 294 294 290 289 291 292 296 297 295 295 295 294 294 293 294 292 294 295 295 297 299 298 301 303 303 304 305 305 304 304 305 304 303 304 299 295 290 287 282 280 281 284 288
238 267 275 278 271 259 284 186 323 333 297 25 352 85 275 146 208 188 162 169 178 197 217 216 217 115 281 273 273 245 202 236 259 260 252 256 259 260 262 268 275 282 286 289 288 289 293 292 293 297 301 304 299 295 292 293 293 291 291 291 295 295 292 294 292 295 296 298 297 299 300 296 298 301 299 295 293 296 294 294 291 285 281 281 275 272 278
262 266 261 255 256 259 112 239 232 145 136 278 214 177 281 175 180 180 161 188 191 196 212 200 151 193 232 255 268 283 183 249 261 264 261 255 253 255 259 267 280 289 292 292 291 290 287 290 301 309 308 303 294 287 291 291 288 285 288 293 294 296 297 297 295 291 290 289 291 292 291 290 291 291 292 290 287 290 289 289 286 288 285 280 279 274 270
233 248 247 253 248 262 318 267 260 162 165 162 276 293 286 96 205 195 192 204 201 216 228 194 186 206 249 260 279 300 280 257 255 267 269 265 259 256 263 270 271 288 294 294 291 292 293 296 305 306 307 300 293 290 288 290 286 287 294 296 300 299 296 294 293 291 288 287 279 281 284 288 290 287 286 285 284 286 288 288 289 287 284 279 280 275 269
241 239 249 256 266 261 211 223 157 126 170 121 261 259 310 179 206 195 196 220 219 221 227 200 218 220 231 255 276 285 281 228 255 254 255 261 265 269 274 284 319 300 293 288 289 292 295 300 305 309 311 303 297 298 295 292 290 300 303 305 304 297 295 294 291 289 288 286 284 280 279 285 287 286 284 282 284 285 288 289 285 283 280 279 276 272 268
237 239 255 255 279 241 190 41 133 166 98 230 256 307 126 158 205 206 205 219 230 223 226 229 231 245 242 245 257 271 275 271 270 268 265 268 271 273 278 277 277 289 293 293 294 295 299 306 313 321 325 312 305 305 302 296 305 309 309 309 304 299 293 290 287 287 288 286 281 282 283 285 283 282 279 278 280 283 285 285 285 284 280 276 272 268 266
303 236 260 268 266 38 149 126 75 203 205 276 80 139 238 191 193 191 215 219 237 222 240 237 241 249 257 258 257 259 263 268 271 272 273 277 284 295 300 302 312 317 307 303 301 301 307 312 321 329 332 317 310 308 302 307 315 312 312 310 306 300 295 289 289 290 289 286 283 284 284 282 281 280 281 280 279 280 278 275 273 275 274 272 266 263 262
260 256 235 218 282 340 155 167 212 178 214 112 175 231 270 187 196 228 227 225 228 231 233 244 245 246 254 261 260 261 263 263 266 271 278 288 291 292 297 305 313 326 308 304 305 308 311 312 318 324 329 317 311 309 306 317 317 315 315 312 306 299 294 291 292 291 289 288 283 282 281 282 283 280 279 277 276 274 276 274 275 272 271 270 266 260 257
181 248 266 261 331 155 205 221 254 266 245 226 224 225 255 282 262 211 229 247 238 222 231 239 246 253 245 249 256 263 270 276 281 295 311 313 304 302 303 307 317 325 320 318 315 309 306 309 317 322 330 323 313 307 311 320 320 318 314 310 304 296 295 294 293 293 292 288 287 286 284 283 281 279 277 278 277 274 271 270 268 266 267 266 263 262 260
257 266 260 269 271 255 210 223 243 256 256 263 255 243 266 243 247 242 243 257 264 253 217 236 247 245 253 260 265 270 276 283 300 326 315 303 298 299 306 314 335 338 324 312 306 302 302 309 322 320 326 327 315 310 317 317 313 310 307 305 302 298 298 296 294 295 291 290 287 283 281 278 274 272 271 272 271 272 270 267 268 267 269 269 265 262 260
274 267 261 231 250 263 265 258 227 222 241 257 260 261 252 258 257 249 236 251 259 259 242 229 248 259 262 269 275 281 285 293 305 311 303 298 306 319 322 330 345 325 326 312 306 307 302 310 322 320 328 323 314 312 310 309 307 305 304 302 300 297 296 297 297 296 293 292 291 287 281 278 273 271 271 270 269 270 267 266 267 269 270 270 269 266 264
250 259 265 265 264 263 263 261 273 266 248 236 243 244 250 259 261 257 257 239 247 242 245 240 245 258 269 275 279 285 288 295 303 299 299 309 317 320 326 323 329 319 311 306 304 306 304 312 319 317 316 312 309 307 303 302 302 301 298 297 296 295 294 293 292 291 289 287 286 284 281 277 275 273 270 266 267 265 267 267 269 271 271 270 271 270 270
252 262 264 266 270 270 267 254 238 243 253 261 261 254 249 251 256 245 200 214 246 234 249 262 258 267 270 258 274 279 289 297 300 306 314 316 315 318 320 319 327 314 312 308 306 307 304 310 310 307 305 303 303 302 301 300 303 298 295 297 293 291 292 293 291 292 288 286 285 285 283 280 273 269 269 269 267 267 262 263 263 266 270 268 266 267 271
256 250 253 253 264 272 268 255 243 243 248 255 256 257 237 236 242 238 215 168 133 195 301 254 254 258 273 266 283 284 293 301 310 314 316 314 313 313 314 311 311 308 309 308 305 303 301 307 304 302 300 302 299 297 297 297 298 293 294 297 295 294 293 292 292 291 291 289 288 286 284 283 283 278 269 267 266 265 267 262 262 263 264 265 266 268 271
252 251 249 236 243 262 269 275 274 263 234 218 242 244 244 229 220 195 187 189 179 191 193 194 265 280 289 299 313 301 303 306 312 312 313 312 312 315 319 316 313 315 311 309 303 300 302 304 300 297 297 299 299 296 295 291 293 290 294 297 296 294 293 291 292 292 291 289 288 285 284 284 282 283 284 274 269 269 268 270 269 269 268 266 267 265 263
259 264 267 261 249 260 272 274 283 275 186 216 237 247 281 228 154 148 162 187 220 223 232 299 347 330 322 319 322 301 304 304 307 304 306 307 306 307 311 314 311 311 311 312 308 304 301 297 296 295 293 294 290 289 293 295 292 293 295 293 293 293 294 293 293 290 289 288 287 286 285 283 282 283 282 284 280 269 269 270 273 274 272 267 265 265 261
250 253 256 258 262 263 267 293 338 43 164 205 236 233 188 146 113 107 152 113 75 103 273 275 322 349 321 312 306 300 302 303 301 306 309 304 300 306 306 306 307 309 307 306 302 297 295 295 293 290 286 286 287 288 296 300 300 296 292 292 293 293 293 293 292 291 291 289 287 286 285 283 282 280 281 282 283 288 279 276 277 277 282 290 290 288 287
242 253 260 268 274 271 265 11 259 200 176 169 132 101 85 84 86 95 70 28 44 58 313 292 301 334 5 321 312 309 305 299 311 314 306 305 308 306 303 311 312 307 302 300 297 292 288 289 288 291 289 293 295 300 304 300 294 291 291 290 290 289 292 292 291 290 288 287 286 285 283 283 282 282 280 280 283 285 288 289 285 282 279 277 281 287 286
243 250 264 278 269 267 227 218 261 94 125 107 117 109 103 99 81 84 53 50 38 52 61 21 23 16 350 328 311 306 302 305 309 300 303 306 304 306 307 306 304 301 296 294 290 285 287 289 288 291 291 296 303 303 300 295 292 290 288 288 287 286 286 288 287 287 286 285 285 284 284 282 281 280 279 279 279 280 280 282 284 283 285 281 275 272 273
255 235 191 235 255 267 300 50 69 119 110 122 126 121 91 75 78 74 88 122 120 86 53 75 36 358 327 320 318 307 307 304 306 308 307 303 306 307 302 300 298 297 293 284 283 285 287 286 292 294 296 300 301 299 296 292 289 288 292 290 288 287 289 289 286 284 283 284 283 282 281 280 280 279 278 278 276 275 275 275 277 279 283 281 279 276 277
233 160 223 283 342 46 88 129 112 125 130 104 102 91 91 94 129 145 152 126 100 47 277 343 17 334 308 303 308 301 304 304 305 306 305 303 301 300 297 294 292 289 286 284 283 286 295 299 300 296 292 297 297 292 293 295 293 293 290 287 287 288 288 288 288 287 287 284 283 282 282 281 279 277 276 276 275 276 276 277 277 278 281 288 291 290 288
138 107 97 116 80 141 150 205 197 159 144 142 132 128 124 125 159 162 175 175 134 299 294 330 314 305 302 296 297 304 305 305 301 300 298 300 299 295 290 287 284 275 279 276 291 305 305 301 295 294 292 292 291 295 297 295 293 289 288 287 285 286 288 290 291 291 290 287 285 284 283 282 282 282 283 283 283 282 283 281 281 282 281 279 276 276 279
97 73 95 109 138 176 215 205 144 163 143 121 127 167 161 137 152 194 172 282 303 280 305 302 298 290 285 287 294 294 293 294 294 295 295 295 293 288 289 294 304 309 308 305 306 305 301 297 294 294 292 295 302 306 306 302 298 297 295 293 290 290 292 294 294 292 289 288 286 285 282 281 280 281 280 280 281 281 281 282 285 283 281 277 275 272 269
102 102 97 185 184 215 217 204 178 181 141 77 12 329 12 5 309 294 289 283 283 302 300 297 285 286 290 294 295 296 295 291 287 284 284 283 280 282 286 285 279 285 296 300 301 299 297 298 295 288 292 304 306 302 300 303 306 304 301 300 297 298 295 295 295 292 291 286 284 281 279 279 278 278 278 278 277 278 280 281 279 279 281 282 276 269 265
129 281 268 216 228 250 243 217 173 156 113 14 357 333 324 308 290 288 291 298 304 296 292 282 278 280 290 289 290 288 288 287 281 276 270 274 287 294 291 289 294 299 300 299 296 292 286 290 290 301 306 304 303 304 305 306 307 305 303 299 297 295 294 294 292 292 290 286 281 276 275 273 274 274 274 274 274 274 274 275 276 278 277 277 278 275 276
204 230 58 68 119 224 212 158 99 126 171 242 286 298 286 295 298 295 293 296 285 283 275 275 274 285 290 293 290 287 289 290 296 296 299 298 295 292 295 299 303 302 297 293 289 290 293 299 307 309 303 303 306 305 303 304 308 306 302 300 298 299 300 300 299 297 292 290 284 280 276 273 271 269 270 270 270 269 272 274 273 273 275 280 282 285 279
96 94 95 90 72 79 54 86 114 219 299 277 280 276 282 288 290 290 289 290 283 287 293 294 295 294 290 284 283 279 278 273 280 288 292 294 294 297 302 310 310 305 298 294 287 290 299 307 304 303 307 310 306 303 305 308 310 307 306 304 303 302 301 300 300 295 294 290 288 285 281 277 273 270 266 265 265 265 266 268 268 265 268 279 288 289 287
96 95 93 94 89 80 106 121 212 253 258 268 273 279 280 270 275 283 286 287 295 297 297 299 295 290 281 275 275 275 273 278 280 283 284 286 293 300 309 313 312 309 302 299 304 305 312 306 304 313 317 313 311 311 313 315 315 314 310 310 307 306 304 302 300 298 297 295 294 293 290 287 281 277 273 269 266 264 264 265 268 272 274 276 279 290 300
92 101 112 98 86 95 110 211 232 225 232 252 269 282 284 279 269 267 274 280 289 291 291 287 279 272 273 268 269 270 269 272 278 284 285 290 296 303 309 308 303 295 299 303 315 324 311 307 313 322 322 316 316 314 315 321 323 320 315 313 311 309 306 306 306 307 307 307 307 305 301 301 304 297 284 274 268 265 265 265 270 272 274 276 280 285 293
119 120 141 137 233 210 251 247 241 225 258 276 268 260 265 279 289 291 289 290 284 280 276 272 265 265 269 272 272 272 275 275 275 279 284 288 295 306 307 305 303 301 307 311 317 317 311 314 321 325 320 321 319 316 319 325 329 326 319 317 313 311 309 309 310 311 312 314 316 317 318 317 314 320 326 323 318 309 302 301 297 290 287 300 317 334 344
112 83 76 63 158 227 256 255 248 231 230 250 271 277 270 268 271 281 273 267 269 265 262 259 262 266 269 276 277 279 278 278 280 283 286 291 300 304 291 291 279 279 279 300 310 306 307 317 327 322 326 321 319 316 326 330 333 327 322 318 317 313 315 314 316 315 318 320 321 327 330 329 329 329 331 334 335 338 343 348 346 350 354 352 348 352 353
105 328 269 245 237 245 257 263 249 252 250 241 252 269 277 281 272 267 271 272 269 266 263 262 268 271 278 274 278 278 281 284 287 288 287 298 307 304 298 274 251 251 295 312 310 304 311 320 323 320 321 322 324 330 331 332 333 329 326 323 321 319 318 320 320 324 326 328 332 336 337 337 338 335 335 339 345 350 354 353 358 357 357 1 3 359 1
201 226 251 257 275 271 268 279 283 272 265 264 255 261 266 262 266 269 267 267 270 264 264 262 267 266 264 266 268 274 280 283 280 276 285 306 304 305 300 294 302 332 333 320 311 309 315 322 327 324 327 330 328 335 335 333 334 330 329 327 327 327 327 327 329 330 330 333 338 340 341 342 342 342 343 343 349 355 355 359 359 2 3 5 6 7 10
250 259 275 285 281 279 276 268 274 287 284 274 271 272 273 263 259 257 265 270 274 273 269 266 254 257 263 265 266 272 276 276 273 276 280 282 285 293 295 283 318 331 322 317 309 309 320 317 324 334 336 337 331 335 337 334 335 335 334 333 332 332 332 332 333 332 331 333 335 337 342 346 345 347 346 347 348 350 352 357 1 4 8 10 13 13 13
236 240 255 259 262 269 259 269 272 282 289 291 285 275 269 268 263 266 265 265 265 269 270 267 269 270 269 268 271 275 275 270 275 292 299 277 253 247 254 273 309 315 312 308 305 309 327 323 334 337 340 342 337 336 334 340 339 340 339 338 337 336 337 339 338 337 339 341 342 345 347 348 350 351 352 354 352 353 355 357 1 6 9 14 17 19 26
257 265 250 253 271 293 302 292 287 282 278 274 271 271 272 271 267 262 266 267 271 266 257 264 265 262 263 262 261 270 282 299 304 311 311 307 300 265 225 245 301 304 302 305 308 322 326 329 334 338 337 342 341 344 343 342 338 341 342 341 340 341 342 341 343 344 348 347 349 347 347 348 351 351 353 355 357 358 0 2 4 6 13 19 26 30 34
250 249 269 275 273 278 278 265 259 266 276 287 287 283 277 273 273 266 256 257 257 261 255 253 252 258 260 257 256 265 279 290 290 300 296 297 298 293 134 329 306 302 300 312 312 323 326 336 335 338 342 343 345 343 346 356 346 342 343 343 343 345 346 346 347 347 347 350 351 349 350 351 350 353 354 357 359 4 4 7 10 12 15 21 21 26 25
252 252 262 287 283 264 258 262 272 274 274 278 283 283 277 264 261 270 261 251 254 255 249 251 258 262 263 268 271 269 273 277 269 255 255 252 262 289 318 311 305 298 305 314 318 321 327 333 337 341 345 347 346 339 350 353 355 1 355 351 346 346 348 349 350 349 350 352 351 353 355 356 358 360 0 3 4 10 10 14 23 24 26 27 28 25 29
289 301 278 256 272 271 274 274 280 274 274 285 274 282 292 290 281 265 272 266 254 258 259 256 252 259 270 274 278 288 302 307 301 258 235 228 250 285 295 295 289 297 315 322 331 333 337 337 338 341 345 345 346 347 352 360 360 355 347 358 359 354 349 352 352 352 353 352 350 350 352 358 1 1 1 3 8 12 13 16 25 24 26 28 31 27 35
279 279 282 269 272 283 299 297 317 306 295 280 276 283 284 286 285 282 279 275 271 261 259 260 267 273 271 264 260 259 275 296 303 300 142 282 298 299 296 296 305 318 319 314 322 320 334 342 342 343 345 347 353 357 358 2 358 359 2 1 5 2 357 354 354 354 348 348 349 356 359 0 359 2 5 10 10 15 14 17 20 30 39 39 39 39 43
246 252 270 271 278 295 311 303 305 295 289 294 294 280 285 282 282 276 277 277 275 283 289 293 290 289 297 311 308 277 268 237 239 267 306 317 311 307 301 302 311 320 326 327 322 321 333 341 340 343 346 350 2 358 358 355 355 354 357 355 354 358 355 356 356 350 349 351 353 358 359 2 3 4 2 8 12 14 16 24 25 24 19 25 35 32 37
270 274 293 318 327 322 316 315 299 290 295 293 281 286 282 279 289 308 317 319 316 317 313 310 322 320 334 329 309 307 306 300 289 289 292 295 295 292 295 304 308 315 318 323 324 323 332 338 344 348 347 348 347 347 349 348 350 356 351 350 352 353 351 345 355 4 3 6 7 3 3 5 8 6 9 15 19 28 32 31 29 23 29 33 31 32 29
332 320 295 294 289 288 281 264 254 279 274 269 274 291 297 307 310 314 321 324 323 329 328 336 331 332 321 332 328 325 325 319 308 303 295 292 289 292 300 303 305 308 324 323 328 337 334 337 340 339 339 338 338 343 350 347 345 345 350 353 347 349 348 352 356 358 2 1 6 8 12 17 10 9 14 18 17 18 10 11 13 15 14 20 21 21 25
271 256 262 269 284 295 294 286 280 273 278 287 303 310 309 319 318 319 316 334 338 334 339 332 326 324 338 339 331 334 334 327 319 308 298 291 295 292 294 300 302 310 325 329 330 327 325 322 322 323 329 334 340 337 332 337 348 345 343 345 347 348 349 348 351 352 354 355 358 0 10 16 5 8 12 9 11 12 9 10 12 14 14 15 17 17 20